Location: Norton
(51.3000°N, 0.8167°E)
Time: 17:49:14
(UTC+00:00)

MetOp-A - Pass Details

Date: 03 March 2021
Orbit: 819 x 821 km, 98.5° (Epoch: 13 April)

Event Time Altitude Azimuth Distance (km) Brightness Sun altitude
Exits shadow 19:27:03 - 164° (SSE) 3,245 7.0 -17.3°
Reaches altitude 10° 19:29:09 10° 165° (SSE) 2,415 6.3 -17.6°
Maximum altitude 19:34:31 87° 255° (WSW) 831 4.1 -18.4°
Drops below altitude 10° 19:39:55 10° 344° (NNW) 2,432 7.0 -19.2°
Sets 19:42:17 0° 345° (NNW) 3,369 7.7 -19.6°
